User: anonymous   Login
Location: Carnetin
(48.9010°N, 2.7059°E)
Time: 02:51:52
(UTC+00:00)
Language:

USA 267 - Orbit

View from above orbital plane
View from above orbital plane
View from above satellite
View from above satellite

Ground track
Ground track

The orbit data is extracted from the following two-line orbital elements,

1 41334U 16010A   21347.74820582 0.00000000  00000-0  00000-0 0    09
2 41334 122.9964 136.5892 0004069 137.6674 222.3326 13.41428454    03
Epoch (UTC): 13 December 2021 17:57:24
Eccentricity: 0.0004069
inclination: 122.9964°
perigee height: 1101 km
apogee height: 1107 km
right ascension of ascending node: 136.5892°
argument of perigee: 137.6674°
revolutions per day: 13.41428454
mean anomaly at epoch: 222.3326°
orbit number at epoch: 0

The dashed part of the orbit path shows where the satellite is in the earth's shadow,  

DLR